Theta_e
289 288 288 288 289 289 288 288 289 289 290 290 291 291 292 292 292 293 293 293 294 295 296 297 297 297 297 297 297 297 297 297 297 298 298 298 298 297 297 297 297 296
287 287 287 286 286 287 286 286 286 287 287 287 288 288 289 290 291 292 292 293 293 294 294 294 295 295 295 296 296 296 296 296 296 297 297 297 297 297 297 296 296 296
286 286 286 286 285 285 285 285 285 285 285 285 286 286 286 287 288 289 290 291 292 292 293 293 293 293 294 294 295 295 295 295 295 296 296 296 296 296 296 296 296 296
286 286 286 286 286 285 285 285 285 285 285 285 285 285 285 285 285 286 286 287 288 289 291 292 292 292 292 293 293 294 294 294 294 295 295 295 296 296 296 296 296 295
287 287 286 286 286 286 286 285 285 285 285 285 285 285 285 285 285 285 285 285 285 286 287 288 290 291 292 292 292 292 293 293 293 294 294 294 295 295 295 295 295 295
288 287 286 286 286 286 286 286 285 286 286 285 285 285 285 285 285 285 284 284 284 284 285 285 286 288 289 290 291 291 292 292 292 293 293 293 294 294 294 294 294 294
287 287 286 286 286 286 286 286 285 285 285 286 286 286 286 286 285 285 285 285 285 284 284 284 284 285 286 287 288 290 291 291 291 291 292 292 293 293 293 294 294 294
286 286 286 285 285 285 286 285 285 285 285 285 285 285 286 286 286 286 286 285 285 285 285 285 284 284 284 285 285 286 288 289 290 290 290 291 291 292 292 293 293 293
285 285 285 285 285 285 285 285 285 285 284 284 285 285 285 285 285 285 286 286 286 286 286 285 285 285 284 284 284 284 285 286 287 288 289 290 290 290 291 291 292 292
285 285 285 285 285 285 285 285 285 285 284 284 284 284 284 284 284 284 285 285 285 285 286 285 286 285 285 285 284 284 284 284 285 285 286 288 289 289 290 290 291 291
285 285 285 285 285 285 285 285 285 285 284 284 284 284 284 284 284 284 284 284 284 284 284 284 285 285 285 285 285 285 284 284 284 284 285 286 287 288 289 289 290 290
286 286 285 285 285 285 285 285 285 284 284 284 284 284 283 283 283 283 283 283 283 283 283 283 283 284 284 285 285 285 285 285 284 284 284 284 285 285 286 287 288 289
286 285 285 285 284 284 284 284 284 284 284 284 283 283 283 283 282 282 282 282 282 282 282 282 282 282 283 283 283 284 284 284 284 284 284 284 284 284 284 285 286 287
285 285 284 284 284 284 283 283 283 283 283 283 282 282 282 282 282 282 282 281 281 281 281 281 281 281 281 282 282 282 283 283 283 284 284 284 284 284 284 284 284 285
284 284 284 283 283 283 283 283 282 282 282 282 282 282 281 281 281 281 281 281 281 281 281 281 281 281 281 281 281 281 282 282 282 283 283 284 284 284 284 284 284 284
283 283 283 282 282 282 282 282 282 282 282 281 281 281 281 281 281 281 281 280 280 280 280 280 280 280 280 280 280 281 281 282 283 283 284 284 284 284 284 284 284 284
282 282 281 281 281 281 281 281 281 281 281 281 280 280 280 280 280 280 280 280 280 280 279 279 279 279 279 279 280 281 281 282 282 283 284 284 284 284 284 284 284 284
281 280 280 280 280 280 280 280 280 280 279 279 279 279 279 279 279 279 279 279 279 279 279 279 278 278 278 278 279 280 281 281 281 282 283 283 284 284 284 284 284 284
279 279 279 279 278 278 278 278 278 277 277 277 277 278 278 278 278 278 278 278 278 278 278 278 278 278 278 278 279 279 280 280 280 281 281 282 282 283 283 283 284 284
277 277 277 276 276 276 276 275 275 275 275 276 276 276 277 277 277 277 277 277 277 277 276 276 276 276 277 277 278 278 279 279 279 280 280 280 281 282 282 283 283 283
275 275 274 274 274 273 273 273 273 273 274 274 274 274 274 274 274 274 274 274 275 275 275 275 275 275 276 276 277 277 278 278 278 278 278 279 279 280 281 282 282 283
273 272 272 272 271 271 271 271 271 271 271 271 271 271 271 271 271 271 272 272 272 272 272 273 273 273 274 275 275 276 276 277 277 277 277 277 277 278 278 279 280 281
271 270 270 269 269 268 268 269 268 268 268 267 267 268 268 268 268 269 269 269 269 270 270 270 271 271 272 273 274 274 275 275 275 275 275 275 275 276 276 277 278 279
268 268 267 267 267 266 266 266 266 265 265 265 265 265 266 266 266 266 266 266 267 267 268 268 269 269 270 271 271 272 273 273 273 274 274 274 274 274 275 275 276 277
267 266 266 265 265 265 265 264 264 264 264 264 264 264 264 264 264 264 264 264 265 265 266 266 267 267 267 268 269 270 271 272 272 273 273 273 273 274 274 274 274 275
265 265 264 264 264 264 264 263 263 263 263 263 263 263 263 263 263 263 263 264 264 264 264 265 265 265 266 267 268 269 270 270 271 272 272 272 273 273 273 273 273 273
Wind_Speed
23 23 23 22 21 21 21 21 22 21 21 21 21 20 20 19 18 18 16 14 12 11 10 10 12 13 15 16 17 19 20 22 23 24 25 27 28 28 29 31 33 35
23 23 23 23 22 22 22 22 23 23 22 22 22 21 21 21 20 19 19 17 16 14 13 13 13 14 15 16 17 18 19 21 22 23 25 27 28 28 29 29 31 33
23 23 23 23 23 23 23 22 23 24 23 23 23 23 22 22 21 20 19 19 18 17 16 16 15 15 15 15 16 18 19 20 21 22 24 26 27 28 29 29 30 31
21 22 22 22 22 22 22 23 24 24 24 25 25 24 23 22 22 21 21 20 19 19 18 17 16 16 16 16 16 18 19 20 21 21 23 26 26 28 29 29 30 31
18 19 19 20 21 22 23 24 26 26 26 26 26 26 26 25 24 24 23 22 21 21 20 19 18 17 16 16 16 17 18 20 21 22 24 25 25 26 28 29 30 31
12 14 16 17 19 20 21 23 25 26 27 28 28 28 29 28 28 27 27 26 24 23 22 22 21 19 18 18 18 18 19 20 20 21 24 27 26 26 27 28 30 31
10 12 14 16 17 18 18 20 22 23 26 27 27 28 29 30 30 30 30 30 28 27 26 25 23 22 21 20 19 19 20 20 21 21 23 25 27 28 28 28 29 31
10 10 13 15 16 17 17 18 20 21 23 24 25 26 28 29 30 30 31 32 32 32 30 29 27 25 24 23 22 22 22 21 22 23 24 25 26 27 28 28 29 31
12 12 15 17 18 19 19 19 21 23 25 25 25 26 27 28 28 28 30 31 32 33 33 33 32 30 28 26 25 25 25 25 24 23 25 26 26 28 28 28 29 30
18 19 21 23 24 25 25 24 24 26 28 27 27 27 28 28 28 27 27 28 29 30 31 33 33 34 33 31 29 27 27 27 27 26 25 26 27 28 28 28 28 30
23 25 27 28 29 29 30 29 29 30 30 30 29 30 30 30 29 28 28 28 28 28 29 30 31 31 33 34 34 32 31 30 29 28 28 27 27 27 28 28 29 30
27 30 32 32 32 32 32 32 32 33 33 33 32 33 33 33 32 31 30 30 30 29 29 30 30 29 30 32 33 34 34 34 32 31 30 29 29 28 28 28 29 30
28 31 33 34 34 34 34 34 34 34 35 35 35 34 35 35 34 34 33 33 33 32 32 31 31 30 31 31 31 31 33 34 35 35 34 33 32 31 30 30 30 30
26 30 33 34 35 35 36 36 36 36 36 36 36 36 36 36 36 36 36 36 34 34 33 32 31 32 33 32 31 31 31 32 34 35 35 36 36 35 34 33 33 32
27 31 33 34 35 35 36 37 37 37 37 37 37 37 37 38 37 37 38 37 36 35 34 33 32 33 34 32 31 32 32 33 33 34 34 35 37 37 37 36 35 35
29 33 34 34 34 35 36 36 37 38 38 38 39 39 39 39 39 39 38 37 37 37 37 36 35 36 36 34 31 30 32 33 34 35 35 35 35 37 38 39 38 37
31 32 32 32 32 33 34 35 35 36 37 38 39 40 40 40 39 39 39 38 38 39 39 40 40 41 41 38 32 29 30 32 34 35 36 35 35 36 37 39 39 39
30 30 30 30 30 30 31 32 33 34 36 37 38 39 40 39 39 39 39 38 38 38 40 41 43 45 45 42 36 32 31 33 34 35 36 36 37 37 38 39 38 38
27 27 28 29 29 29 30 31 32 33 35 36 37 37 37 37 38 38 38 39 38 38 39 41 43 46 46 42 38 35 34 33 34 35 36 37 38 39 40 40 39 38
25 26 27 29 29 30 31 32 32 33 34 33 33 34 34 35 37 38 38 39 39 39 39 41 43 45 43 39 37 36 35 35 35 36 37 38 39 39 39 39 40 39
24 25 27 28 29 30 32 32 32 32 32 31 31 32 34 35 36 37 38 40 40 39 40 42 45 44 41 38 38 38 37 37 37 37 38 38 40 40 40 40 40 40
23 25 27 29 30 30 31 31 30 30 31 32 33 35 35 35 36 37 38 39 40 40 39 42 46 45 41 40 40 39 39 38 38 38 38 39 41 41 41 41 40 40
23 26 29 31 31 30 30 30 30 31 33 32 33 35 35 34 35 36 37 38 39 40 39 41 45 44 40 39 40 39 38 38 37 38 38 39 42 43 42 43 43 42
25 27 29 31 31 30 31 32 32 33 33 31 31 33 35 34 35 37 39 38 38 39 38 39 43 43 39 38 40 40 38 38 37 38 38 39 41 43 44 44 44 43
26 27 28 29 31 31 31 32 33 33 32 32 32 33 35 37 37 38 40 39 36 37 37 37 41 42 39 37 39 38 37 37 37 36 36 37 37 38 40 42 43 45
26 27 28 28 30 32 32 32 32 33 33 33 34 35 36 38 38 37 39 39 36 36 37 37 39 41 38 35 36 36 34 34 35 34 33 35 35 36 39 42 44 46
Wind_Direction
54 52 50 47 46 43 42 41 41 40 38 35 33 29 22 15 7 358 350 342 334 329 323 313 307 305 304 302 301 300 296 292 287 283 279 274 271 268 264 260 256 253
51 49 47 44 43 40 38 38 37 37 36 35 33 31 27 22 16 10 2 353 344 335 327 319 313 311 308 305 303 301 298 295 290 287 284 280 276 273 269 266 263 259
45 43 42 39 37 35 34 34 33 32 31 31 30 29 26 22 19 16 11 5 358 349 341 331 323 317 314 312 309 305 301 298 294 291 288 285 281 278 275 272 269 265
34 33 32 29 27 25 25 25 25 23 22 23 23 22 21 20 17 14 12 9 5 360 354 346 336 328 320 315 312 310 306 302 299 296 292 288 285 282 279 277 273 270
27 24 22 19 16 14 14 15 14 12 11 11 11 11 10 10 10 9 7 6 4 1 357 352 347 341 332 323 315 310 308 306 304 301 296 291 288 285 283 281 278 275
24 19 17 14 10 8 6 5 4 2 1 0 0 0 0 359 359 359 359 358 358 357 354 353 350 347 342 334 325 315 309 306 304 303 299 295 291 289 286 283 281 279
23 16 12 8 6 4 359 356 356 356 355 353 352 351 351 350 349 349 349 348 347 348 348 348 347 346 344 338 331 324 317 310 306 303 300 297 295 291 288 285 282 280
23 11 5 2 1 0 354 348 347 347 347 347 346 345 345 344 342 341 340 339 338 337 338 339 340 341 341 338 334 329 324 318 313 308 303 299 297 293 290 289 285 282
13 3 358 357 356 355 351 345 341 340 341 340 339 338 337 337 336 335 333 332 331 330 329 330 331 332 333 334 332 330 327 323 318 313 308 302 298 295 292 290 287 284
5 359 355 352 350 349 347 344 339 336 336 335 332 331 330 329 328 327 326 325 324 323 323 323 323 324 325 325 326 325 324 322 319 315 310 305 300 297 295 292 288 284
359 354 349 346 343 341 340 338 336 333 332 331 328 326 325 324 322 320 318 317 316 316 316 317 318 318 317 317 318 318 318 317 316 312 309 306 303 299 297 294 290 286
348 345 341 338 335 333 332 331 330 329 328 327 325 324 322 320 319 318 316 314 313 312 310 311 311 310 309 309 310 310 311 311 310 308 306 303 302 301 298 295 292 290
336 335 333 330 328 326 325 324 324 324 323 323 321 320 318 318 317 315 314 313 311 310 308 307 306 304 302 302 302 302 303 304 304 304 302 300 299 299 299 297 293 290
328 328 326 323 321 320 319 319 319 319 319 318 317 316 315 314 314 312 311 310 309 307 306 305 302 299 298 297 296 296 295 296 296 297 296 296 295 295 295 295 293 290
322 322 320 318 316 316 316 316 316 316 316 315 313 313 312 311 310 309 308 306 305 304 304 302 298 296 295 294 293 293 293 292 290 290 289 288 289 290 291 290 289 288
318 318 317 315 313 313 313 313 313 313 312 311 311 310 310 309 308 306 304 303 302 302 301 300 297 295 294 294 291 289 290 290 288 286 283 281 281 282 284 285 284 283
318 317 314 312 311 311 311 311 310 310 309 308 308 307 306 306 304 302 301 300 300 299 299 298 296 295 295 295 291 288 287 288 287 285 282 280 278 277 278 279 280 280
316 315 313 311 311 311 311 310 309 307 306 305 305 304 304 302 300 298 297 297 296 295 295 295 294 294 294 294 293 290 289 288 287 285 283 281 279 278 277 276 275 276
315 314 312 311 311 311 310 309 307 306 305 304 303 302 301 298 297 296 296 295 294 293 292 292 292 292 293 293 294 293 292 291 290 287 284 282 281 279 278 276 275 274
315 313 311 310 310 310 309 308 307 306 305 304 303 301 299 298 297 297 296 295 294 293 293 291 290 290 292 293 294 295 295 294 293 290 287 285 282 280 278 276 275 274
315 313 311 310 309 309 309 308 307 306 305 304 303 301 299 298 297 296 296 295 294 294 294 292 290 291 292 294 295 295 296 295 294 292 289 287 285 283 281 278 276 275
316 313 310 310 310 310 309 308 307 306 305 305 304 300 299 298 296 296 295 294 294 294 294 293 291 292 294 295 295 295 295 294 292 290 289 287 285 284 282 280 278 276
314 312 311 312 312 312 310 309 308 306 306 306 305 302 300 299 298 297 295 294 294 294 294 293 292 293 295 297 297 296 295 295 293 291 288 286 284 283 282 281 279 277
313 313 312 313 312 312 310 309 309 308 307 307 304 301 299 299 298 297 295 294 294 294 294 294 293 294 297 298 297 296 296 296 294 291 288 284 283 282 282 281 279 277
314 314 314 313 312 311 310 309 309 308 307 305 302 299 298 298 298 297 295 295 295 294 295 296 295 296 299 300 298 297 297 296 294 290 286 284 283 283 282 281 279 278
316 315 314 313 311 310 310 309 309 307 307 305 303 301 299 299 298 296 295 295 296 296 296 297 296 298 300 300 300 299 299 297 294 291 288 288 288 286 283 281 278 277